STARLINK-1166, 45060

Orbit data source: Space-Track

STARLINK-1166, 45060 is a payload satellite owned by SpaceX/Seattle (US) in LEO that was launched on Wed, 29 Jan 2020 UTC via an FALCON 9 launch vehicle from the Air Force Eastern Test Range (AFETR). Payload-class satellites include a variety of spacecraft equipped with specific instruments for various scientific and technological missions. These include communications satellites like Starlink; space stations such as the ISS; scientific satellites like the Hubble; Earth observation satellites from companies like Planet Labs, Umbra, and HawkEye 360; GPS; miniature CubeSats for education and research; and military/defense satellites.

Loading next visibility...
Identifier
45060, 2020-006S
Orbit
LEO
Country
Flag of USUS
Related business
Manufacturer
SpaceX/Seattle
Mission
Operational Commercial Communications
Bus & Motor
STARLINK, Unknown motor
Mass
260 kg wet, ~248 kg dry
Launch date (UTC)
2020-01-29 (6 years ago)
Launch vehicle
FALCON 9
Launch site
Air Force Eastern Test Range (AFETR)
Object type
Payload
Rocket body
Debris
Shape & HBR
Box + 1 Pan, 4.4 m
Radar Cross Section
13.562 m², Large (>1 m²)

Expand to show TLE details & history
Last TLE update: 20 hours ago

TLE from 20 hours ago
0 STARLINK-1166
1 45060U 20006S   25260.46027101 -.00003371  00000-0 -20765-3 0  9998
2 45060  53.0553 344.2789 0001062  95.0645 265.0465 15.06381895310359
Epoch: 2025-09-17T11:02Z
TLE epoch observation values (Epoch: 2025-09-17T11:02:47.415Z)
Latitude
-0.00003°
Longitude
-178.05459°
Altitude
548.21 km
Speed
7.589 km/s
True Right ascension
22h 57m 06s
True Declination
0° 00' 00"
Sunlit
Object was in full shadow at epoch
Visualization orbit readout
Latitude
Unknown
Longitude
Unknown
Altitude
Unknown
Speed
Unknown
Apparent Right ascension
Unknown
Apparent Declination
Unknown
Sunlit
N/A
Visualization observer readout
Local Sidereal Time
00:10:40
Azimuth
Unknown
Elevation
Unknown
Doppler factor
Unknown
Orbital elements
Apogee altitude
548.273 km
Perigee altitude
546.802 km
Semi-major axis
6,925.675 km
Eccentricity
0.00011
Inclination
53.0553°
RAAN
344.2789°
Arg. of periapsis
95.0645°
True anomaly
265.03438°
Mean anomaly
265.0465°
Eccentric anomaly
265.04044°
Mean motion
3.76574 °/min
Orbital period
95.6 mins
BSTAR
-0.00020765
Loading maneuver chart data...
Computing Atmospheric mass density...

Documentation

Showing up to 5 results
|